Weather reports worldwide

Advertisment
Shoreham Airport, United Kingdom (3876): temperature & dewpoint: 09.10.2019 19:00:00 - 15.10.2019 19:00:00 (BST)Shoreham Airport, United Kingdom (3876): wind speed & gusts: 09.10.2019 19:00:00 - 15.10.2019 19:00:00 (BST)Shoreham Airport, United Kingdom (3876): wind direction: 09.10.2019 19:00:00 - 15.10.2019 19:00:00 (BST)Shoreham Airport, United Kingdom (3876): reduced air pressure: 09.10.2019 19:00:00 - 15.10.2019 19:00:00 (BST)Shoreham Airport, United Kingdom (3876): visibility: 09.10.2019 19:00:00 - 15.10.2019 19:00:00 (BST)Shoreham Airport, United Kingdom (3876): precipitation: 09.10.2019 19:00:00 - 15.10.2019 19:00:00 (BST)
Date & Time tt [°C] td [°C] ff [km/h] ff [kn] fx [km/h] fx [kn] dd ppp [hPa] vv [km] rr [mm]
15.10.2019 19:00:00 13,0 11,0 11 6 - - SW - 10 0,0
15.10.2019 18:00:00 13,9 11,0 18 10 - - SW 1005,2 10 0,0
15.10.2019 17:00:00 15,3 11,9 18 10 - - SW 1005,0 10 0,0
15.10.2019 16:00:00 15,3 11,4 26 14 - - SSW 1004,9 10 0,0
15.10.2019 15:00:00 16,1 12,5 21 11 - - SSW 1004,7 10 0,0
15.10.2019 14:00:00 15,3 11,5 22 12 - - SW 1004,5 10 0,0
15.10.2019 13:00:00 16,2 12,2 21 11 - - SW 1004,7 10 0,0
15.10.2019 12:00:00 14,4 12,7 4 2 - - SE 1004,8 - 0,0
15.10.2019 11:00:00 14,6 13,3 5 3 - - SSE 1004,6 10 0,0
15.10.2019 10:00:00 13,3 13,2 2 1 - - SSE 1004,4 10 0,0
15.10.2019 09:00:00 12,3 12,2 4 2 - - N 1003,7 10 0,2
15.10.2019 08:00:00 11,6 11,5 5 3 - - N 1003,5 3,0 0,2
15.10.2019 07:00:00 11,7 11,6 9 5 - - N 1003,2 - 0,2
15.10.2019 06:00:00 12,2 12,0 5 3 - - NE 1003,0 - 0,4
15.10.2019 05:00:00 11,7 11,5 2 1 - - SSE 1002,7 - 0,6
15.10.2019 04:00:00 10,4 10,2 2 1 - - NE 1002,5 - 0,0
15.10.2019 03:00:00 10,3 9,9 5 3 - - W 1002,9 - 0,0
15.10.2019 02:00:00 11,5 10,8 4 2 - - W 1003,0 - 0,0
15.10.2019 01:00:00 12,5 11,6 9 5 - - SW 1003,1 - 0,0
15.10.2019 00:00:00 13,2 11,9 16 9 - - WSW 1002,6 - 0,0
14.10.2019 23:00:00 14,0 12,6 26 14 - - SW 1001,6 - 0,0
14.10.2019 22:00:00 14,5 13,3 26 14 - - SW 1001,1 - 0,0
14.10.2019 21:00:00 15,4 14,8 24 13 46 25 SSW 1000,5 - 0,6
14.10.2019 20:00:00 15,7 14,4 16 9 - - SSE 1000,2 7 0,0
14.10.2019 19:00:00 16,0 15,3 13 7 - - SE 1000,0 6 1,4
14.10.2019 18:00:00 16,5 15,7 21 11 - - ESE 1000,7 7 0,6
14.10.2019 17:00:00 16,5 15,2 22 12 - - E 1000,7 8 0,2
14.10.2019 16:00:00 16,4 15,0 21 11 - - E 1001,1 9 0,0
14.10.2019 15:00:00 16,1 14,4 26 14 - - E 1002,1 8 0,0
14.10.2019 14:00:00 14,4 13,0 21 11 - - E 1003,1 10 0,0
14.10.2019 13:00:00 13,7 12,1 22 12 - - ENE 1004,2 10 0,0
14.10.2019 12:00:00 13,4 11,5 22 12 - - ENE 1005,2 10 0,0
14.10.2019 11:00:00 13,3 11,1 24 13 - - ENE 1006,4 10 0,0
14.10.2019 10:00:00 13,0 11,4 18 10 - - ENE 1007,2 10 0,2
14.10.2019 09:00:00 12,6 11,5 9 5 - - NNE 1008,5 9 0,2
14.10.2019 08:00:00 12,2 11,3 9 5 - - NE 1009,0 8 1,0
14.10.2019 07:00:00 11,9 10,2 5 3 - - NE 1009,3 - 0,8
14.10.2019 06:00:00 13,6 11,6 9 5 - - ESE 1009,7 - 0,2
14.10.2019 05:00:00 13,4 12,6 13 7 - - SE 1010,5 - 0,0
14.10.2019 04:00:00 10,9 10,7 4 2 - - N 1010,5 - 0,0
14.10.2019 03:00:00 10,4 10,2 2 1 - - ENE 1010,8 - 0,0
14.10.2019 02:00:00 9,3 9,0 2 1 - - E 1011,3 - 0,0
14.10.2019 01:00:00 9,6 9,3 4 2 - - E 1011,3 - 0,0
14.10.2019 00:00:00 8,7 8,2 2 1 - - E 1011,4 - 0,0
13.10.2019 23:00:00 9,4 9,0 4 2 - - N 1011,3 - 0,0
13.10.2019 22:00:00 8,6 7,7 2 1 - - NNW 1010,9 - 0,0
13.10.2019 21:00:00 9,7 8,5 2 1 - - WNW 1010,0 - 0,0
13.10.2019 20:00:00 11,8 9,3 8 4 - - WSW 1009,5 - 0,0
13.10.2019 19:00:00 13,0 9,7 15 8 - - WSW 1008,6 10 0,0
13.10.2019 18:00:00 14,4 10,4 24 13 48 26 WSW 1007,0 10 0,0
13.10.2019 17:00:00 15,8 12,4 26 14 59 32 WSW 1006,2 10 0,2
13.10.2019 16:00:00 15,6 13,1 29 16 48 26 SW 1005,5 10 0,0
13.10.2019 15:00:00 15,7 13,7 34 18 46 25 SW 1004,6 10 0,0
13.10.2019 14:00:00 15,7 14,0 29 16 50 27 SW 1003,5 10 0,0
13.10.2019 13:00:00 15,9 14,5 34 18 68 37 SW 1003,2 9 0,2
13.10.2019 12:00:00 16,8 14,6 39 21 54 29 SSW 1002,0 7 0,4
13.10.2019 11:00:00 17,7 14,4 35 19 50 27 S 1001,6 9 0,0
13.10.2019 10:00:00 17,1 14,5 28 15 - - S 1001,5 9 0,0
13.10.2019 09:00:00 16,8 14,6 26 14 - - S 1001,7 8 0,0
13.10.2019 08:00:00 16,4 14,5 26 14 - - S 1001,8 - 0,0
13.10.2019 07:00:00 16,0 14,5 26 14 - - S 1002,1 - 0,0
13.10.2019 06:00:00 16,2 14,3 31 17 46 25 S 1002,7 - 0,0
13.10.2019 05:00:00 16,0 14,8 21 11 - - S 1003,1 - 0,0
13.10.2019 04:00:00 12,3 12,1 8 4 - - NNE 1004,0 - 0,4
13.10.2019 03:00:00 11,8 11,6 16 9 - - N 1004,6 - 0,2
13.10.2019 02:00:00 11,8 11,6 15 8 - - N 1005,2 - 0,2
13.10.2019 01:00:00 11,9 11,6 9 5 - - NNW 1005,9 - 0,0
13.10.2019 00:00:00 11,8 11,6 9 5 - - N 1006,6 - 0,2
12.10.2019 23:00:00 11,3 11,1 11 6 - - N 1007,4 - 1,2
12.10.2019 22:00:00 11,6 11,4 8 4 - - NE 1007,8 - 2,4
12.10.2019 21:00:00 11,5 11,2 8 4 - - ENE 1008,4 - 3,4
12.10.2019 20:00:00 11,5 11,2 8 4 - - E 1008,5 3,5 1,0
12.10.2019 19:00:00 11,6 11,1 11 6 - - E 1008,2 4,0 0,2
12.10.2019 18:00:00 11,7 11,2 11 6 - - E 1008,2 5 0,2
12.10.2019 17:00:00 12,0 11,4 8 4 - - E 1008,5 4,0 0,8
12.10.2019 16:00:00 12,2 11,7 11 6 - - ESE 1008,8 3,5 0,8
12.10.2019 15:00:00 12,2 11,7 8 4 - - ESE 1009,1 3,5 0,2
12.10.2019 14:00:00 12,2 11,6 8 4 - - ESE 1009,3 6 0,2
12.10.2019 13:00:00 12,3 11,5 4 2 - - ESE 1009,6 5 0,2
12.10.2019 12:00:00 12,1 10,7 2 1 - - NW 1009,6 7 0,2
12.10.2019 11:00:00 11,7 10,0 4 2 - - SE 1009,3 7 0,0
12.10.2019 10:00:00 12,0 11,3 4 2 - - E 1008,8 10 0,0
12.10.2019 09:00:00 11,4 11,0 2 1 - - ENE 1008,7 10 0,0
12.10.2019 08:00:00 11,1 10,7 2 1 - - E 1008,5 - 0,0
12.10.2019 07:00:00 10,8 10,4 2 1 - - N 1008,0 - 0,0
12.10.2019 06:00:00 10,8 10,2 2 1 - - NNW 1007,7 - 0,0
12.10.2019 05:00:00 10,9 10,4 8 4 - - NW 1007,7 - 0,2
12.10.2019 04:00:00 11,2 10,8 4 2 - - NW 1007,4 - 0,2
12.10.2019 03:00:00 11,2 10,8 4 2 - - NW 1007,4 - 0,0
12.10.2019 02:00:00 11,4 11,0 16 9 - - NW 1007,6 - 0,8
12.10.2019 01:00:00 12,5 12,2 5 3 - - W 1007,2 - 0,8
12.10.2019 00:00:00 12,7 12,4 8 4 - - W 1007,1 - 1,0
11.10.2019 23:00:00 12,9 12,5 9 5 - - W 1007,0 - 2,8
11.10.2019 22:00:00 13,3 12,6 13 7 54 29 W 1006,8 - 2,2
11.10.2019 21:00:00 16,2 14,9 37 20 59 32 SSW 1006,4 - 0,0
11.10.2019 20:00:00 16,4 14,7 37 20 55 30 SW 1006,8 6 0,0
11.10.2019 19:00:00 16,4 14,6 39 21 55 30 SW 1006,9 8 0,0
11.10.2019 18:00:00 16,2 14,7 37 20 57 31 SW 1007,1 4,0 0,0
11.10.2019 17:00:00 16,5 14,4 39 21 57 31 SW 1007,0 10 0,0
11.10.2019 16:00:00 16,7 14,5 37 20 55 30 SW 1007,3 10 0,0
11.10.2019 15:00:00 16,1 14,6 44 24 63 34 SW 1007,6 9 0,0
11.10.2019 14:00:00 15,9 14,7 34 18 63 34 SSW 1007,8 10 0,0
11.10.2019 13:00:00 15,7 14,5 39 21 61 33 SW 1008,5 9 0,0
11.10.2019 12:00:00 15,5 14,7 35 19 63 34 SW 1008,5 4,0 1,8
11.10.2019 11:00:00 15,6 14,6 37 20 72 39 SSW 1009,0 3,0 0,8
11.10.2019 10:00:00 15,8 14,4 37 20 57 31 SSW 1009,0 6 0,2
11.10.2019 09:00:00 15,7 14,3 34 18 57 31 SSW 1009,3 6 0,4
11.10.2019 08:00:00 15,4 14,3 39 21 61 33 SW 1009,5 7 0,4
11.10.2019 07:00:00 15,3 13,7 42 23 63 34 SW 1009,7 - 0,0
11.10.2019 06:00:00 16,0 13,6 42 23 63 34 SW 1010,0 - 0,0
11.10.2019 05:00:00 16,1 13,9 41 22 54 29 SW 1010,4 - 0,0
11.10.2019 04:00:00 16,2 14,3 34 18 48 26 SW 1010,8 - 0,0
11.10.2019 03:00:00 16,0 14,4 34 18 48 26 SW 1011,2 - 0,0
11.10.2019 02:00:00 16,3 14,0 37 20 55 30 SW 1011,7 - 0,0
11.10.2019 01:00:00 16,2 13,9 35 19 52 28 SW 1011,8 - 0,0
11.10.2019 00:00:00 16,0 14,0 31 17 54 29 SW 1012,2 - 0,0
10.10.2019 23:00:00 16,1 13,8 37 20 57 31 SW 1012,4 - 0,0
10.10.2019 22:00:00 16,0 13,9 37 20 59 32 SW 1012,8 - 0,0
10.10.2019 21:00:00 15,8 13,9 37 20 52 28 SW 1013,0 - 0,0
10.10.2019 20:00:00 15,8 13,0 31 17 55 30 SW 1013,5 9 0,0
10.10.2019 19:00:00 15,5 12,5 34 18 48 26 SW 1013,6 10 0,0
10.10.2019 18:00:00 15,3 11,3 37 20 50 27 SW 1014,0 10 0,0
10.10.2019 17:00:00 15,4 11,1 34 18 54 29 SW 1013,9 10 0,0
10.10.2019 16:00:00 15,7 10,2 34 18 55 30 SW 1013,9 10 0,0
10.10.2019 15:00:00 16,7 11,2 37 20 52 28 SW 1014,3 10 0,0
10.10.2019 14:00:00 16,9 11,2 31 17 50 27 SW 1014,3 10 0,0
10.10.2019 13:00:00 16,6 10,1 28 15 46 25 WSW 1014,4 10 0,0
10.10.2019 12:00:00 16,2 9,4 29 16 46 25 WSW 1014,5 10 0,0
10.10.2019 11:00:00 15,4 10,7 24 13 - - WSW 1014,4 10 0,0
10.10.2019 10:00:00 13,3 10,1 18 10 - - WSW 1014,1 10 0,0
10.10.2019 09:00:00 11,1 9,3 15 8 - - W 1013,7 10 0,0
10.10.2019 08:00:00 8,9 8,0 13 7 - - W 1012,6 10 0,0
10.10.2019 07:00:00 7,4 6,5 9 5 - - WSW 1012,1 - 0,0
10.10.2019 06:00:00 7,0 6,0 9 5 - - WSW 1011,4 - 0,0
10.10.2019 05:00:00 8,1 7,1 8 4 - - WSW 1010,9 - 0,0
10.10.2019 04:00:00 8,6 7,7 13 7 - - WSW 1010,5 - 0,0
10.10.2019 03:00:00 8,3 7,1 13 7 - - W 1010,1 - 0,0
10.10.2019 02:00:00 9,1 7,7 16 9 - - WSW 1009,1 - 0,0
10.10.2019 01:00:00 9,8 7,8 18 10 52 28 W 1008,8 - 0,0
10.10.2019 00:00:00 9,8 7,8 16 9 - - W 1007,9 - 0,0
09.10.2019 23:00:00 9,1 7,3 9 5 - - W 1007,3 - 0,0
09.10.2019 22:00:00 9,6 7,8 9 5 - - W 1007,3 - 0,0
09.10.2019 21:00:00 10,2 8,8 13 7 - - W 1007,2 - 0,2
09.10.2019 20:00:00 10,0 7,9 5 3 - - - 1006,8 10 0,0
09.10.2019 19:00:00 11,0 9,1 9 5 - - WSW 1006,8 10 0,0

tt = temperature
td = dewpoint
ff = wind speed
fx = gusts
dd = wind direction
ppp = reduced air pressure
vv = visibility
rr = precipitation

Next stations